Location: Wangen+im+Allg�u
(47.7098°N, 9.8383°E)
Time: 18:27:47
(UTC+02:00)

ISS - Pass Details

Date: 25 May 2018
Orbit: 402 x 406 km, 51.6° (Epoch: 22 June)

Event Time Altitude Azimuth Distance (km) Brightness Sun altitude
Rises 00:24:44 0° 284° (WNW) 2,322 0.4 -20.4°
Reaches altitude 10° 00:26:53 10° 292° (WNW) 1,461 -0.6 -20.5°
Maximum altitude 00:30:01 40° 4° (N) 611 -2.5 -20.6°
Enters shadow 00:32:59 11° 75° (ENE) 1,404 -1.1 -20.7°
